Satellite: AO-51
Catalog number: 28375
Epoch time:      05047.67864207
Element set:    0184
Inclination:      098.2278 deg
RA of node:       114.9278 deg
Eccentricity:    0.0083297
Arg of perigee:   234.8306 deg
Mean anomaly:     124.5056 deg
Mean motion:   14.40434811 rev/day
Decay rate:       -7.0e-08 rev/day^2
Epoch rev:           03326
Checksum:              310

/EX
SB KEPS @ AMSAT  $ORB05048.W
Orbital Elements  05048.WEATHER

HR AMSAT ORBITAL ELEMENTS FOR WEATHER SATELLITES
FROM WA5QGD FORT WORTH,TX February 17, 2005
SEND SUBSCRIBE/UNSUBSCRIBE TO majordomo@amsat.org ONLY
BID: ORB05048.W
TO ALL RADIO AMATEURS BT

Satellite: NOAA-10
Catalog number: 16969
Epoch time:      05047.67806048
Element set:    0606
Inclination:      098.7657 deg
RA of node:       053.1503 deg
Eccentricity:    0.0013521
Arg of perigee:   123.0434 deg
Mean anomaly:     237.2033 deg
Mean motion:   14.27241886 rev/day
Decay rate:       2.41e-06 rev/day^2
Epoch rev:           95790
Checksum:              297

Satellite: NOAA-11
Catalog number: 19531
Epoch time:      05047.64065927
Element set:    0460
Inclination:      098.8497 deg
RA of node:       135.7488 deg
Eccentricity:    0.0010746
Arg of perigee:   291.3915 deg
Mean anomaly:     068.6111 deg
Mean motion:   14.14752804 rev/day
Decay rate:       2.93e-06 rev/day^2
Epoch rev:           84588
Checksum:              331

Satellite: NOAA-12
Catalog number: 21263
Epoch time:      05047.44755991
Element set:    0954
Inclination:      098.6939 deg
RA of node:       038.8145 deg
Eccentricity:    0.0013520
Arg of perigee:   063.3718 deg
Mean anomaly:     296.8887 deg
Mean motion:   14.25448372 rev/day
Decay rate:       -5.8e-07 rev/day^2
Epoch rev:           71504
Checksum:              337

Satellite: MET-3/5
Catalog number: 21655
Epoch time:      05047.68935489
Element set:    0745
Inclination:      082.5508 deg
RA of node:       243.7690 deg
Eccentricity:    0.0013397
Arg of perigee:   171.2513 deg
Mean anomaly:     188.8780 deg
Mean motion:   13.16998194 rev/day
Decay rate:        5.1e-07 rev/day^2
Epoch rev:           64945
Checksum:              349

Satellite: MET-2/21
Catalog number: 22782
Epoch time:      05047.64620456
Element set:    0131
Inclination:      082.5518 deg
RA of node:       356.6041 deg
Eccentricity:    0.0023721
Arg of perigee:   100.9596 deg
Mean anomaly:     259.4280 deg
Mean motion:   13.83582007 rev/day
Decay rate:       1.57e-06 rev/day^2
Epoch rev:           57890
Checksum:              298

Satellite: OKEAN-4
Catalog number: 23317
Epoch time:      05047.90842532
Element set:    0554
Inclination:      082.5415 deg
RA of node:       009.5226 deg
Eccentricity:    0.0022437
Arg of perigee:   168.6530 deg
Mean anomaly:     191.5197 deg
Mean motion:   14.82066930 rev/day
Decay rate:       5.48e-06 rev/day^2
Epoch rev:           55809
Checksum:              305

Satellite: NOAA-14
Catalog number: 23455
Epoch time:      05047.32114183
Element set:    0479
Inclination:      099.1086 deg
RA of node:       093.5824 deg
Eccentricity:    0.0008767
Arg of perigee:   346.0305 deg
Mean anomaly:     014.0643 deg
Mean motion:   14.13537885 rev/day
Decay rate:       2.29e-06 rev/day^2
Epoch rev:           52242
Checksum:              297

Satellite: SICH-1
Catalog number: 23657
Epoch time:      05047.91523954
Element set:    0356
Inclination:      082.5313 deg
RA of node:       150.3605 deg
Eccentricity:    0.0024846
Arg of perigee:   154.5522 deg
Mean anomaly:     205.6950 deg
Mean motion:   14.81089597 rev/day
Decay rate:       6.20e-06 rev/day^2
Epoch rev:           51015
Checksum:              291

Satellite: NOAA-15
Catalog number: 25338
Epoch time:      05047.25738977
Element set:    0923
Inclination:      098.5164 deg
RA of node:       059.2560 deg
Eccentricity:    0.0010700
Arg of perigee:   357.6943 deg
Mean anomaly:     002.4191 deg
Mean motion:   14.24488973 rev/day
Decay rate:        5.8e-07 rev/day^2
Epoch rev:           35153
Checksum:              318

Satellite: RESURS
Catalog number: 25394
Epoch time:      05047.92373339
Element set:    0052
Inclination:      098.5541 deg
RA of node:       120.4916 deg
Eccentricity:    0.0002227
Arg of perigee:   127.9265 deg
Mean anomaly:     232.2115 deg
Mean motion:   14.24051372 rev/day
Decay rate:        3.6e-07 rev/day^2
Epoch rev:           34333
Checksum:              265

Satellite: FENGYUN1
Catalog number: 25730
Epoch time:      05047.58293268
Element set:    0351
Inclination:      098.6095 deg
RA of node:       054.1932 deg
Eccentricity:    0.0015285
Arg of perigee:   086.3397 deg
Mean anomaly:     273.9531 deg
Mean motion:   14.11788426 rev/day
Decay rate:        4.7e-07 rev/day^2
Epoch rev:           29749
Checksum:              328

Satellite: OKEAN-0
Catalog number: 25860
Epoch time:      05047.94940383
Element set:    0360
Inclination:      097.7721 deg
RA of node:       079.0524 deg
Eccentricity:    0.0000844
Arg of perigee:   132.5167 deg
Mean anomaly:     227.6100 deg
Mean motion:   14.73206294 rev/day
Decay rate:       2.11e-06 rev/day^2
Epoch rev:           30030
Checksum:              263

Satellite: NOAA-16
Catalog number: 26536
Epoch time:      05047.27898888
Element set:    0230
Inclination:      098.9993 deg
RA of node:       005.1263 deg
Eccentricity:    0.0011057
Arg of perigee:   051.8426 deg
Mean anomaly:     308.3745 deg
Mean motion:   14.12210132 rev/day
Decay rate:       3.61e-06 rev/day^2
Epoch rev:           22699
Checksum:              307

